Weather History for Olathe New Century, KS

Change the Weather History Date:

Wednesday, November 27, 2013

  Actual Average Record
Temperature  
Mean Temperature 22 °F -  
Max Temperature 33 °F 48 °F 68 °F (1998)
Min Temperature 12 °F 30 °F 12 °F (2013)
Degree Days  
Heating Degree Days 42    
Moisture  
Dew Point 10 °F    
Average Humidity 59    
Maximum Humidity 81    
Minimum Humidity 37    
Precipitation  
Precipitation 0.00 in - - ()
Sea Level Pressure  
Sea Level Pressure 30.36 in    
Wind  
Wind Speed 8 mph (WSW)    
Max Wind Speed 16 mph    
Max Gust Speed -    
Visibility 8 miles    
Events Snow    
Averages and records for this station are not official NWS values.
T = Trace of Precipitation, MM = Missing Value Source: NWS Daily Summary

Daily Weather History Graph

Daily Weather History Graph

Search for Another Location

Airport:

Trip Planner

Search our weather history database for the weather conditions in past years. The results will help you decide how hot, cold, wet, or windy it might be!

Date:

Astronomy

Nov. 27, 2013 Rise Set
Actual Time 7:15 AM CST 4:59 PM CST
Civil Twilight 6:46 AM CST 5:28 PM CST
Nautical Twilight 6:13 AM CST 6:01 PM CST
Astronomical Twilight 5:41 AM CST 6:33 PM CST
Moon 1:21 AM CST (11/27) 1:34 PM CST (11/27)
Length of Visible Light 10h 42m
Length of Day
9h 43m
Waning Crescent, 31% of the Moon is Illuminated
Nov 27
Waning Crescent
Dec 2
New
Dec 9
First Quarter
Dec 17
Full
Dec 25
Last Quarter

Hourly Weather History & Observations

Time (CST) Temp. Windchill Dew Point Humidity Pressure Visibility Wind Dir Wind Speed Gust Speed Precip Events Conditions
12:53 AM 17.1 °F 8.7 °F 9.0 °F 71% 30.42 in 10.0 mi WNW 5.8 mph - N/A   Clear
1:53 AM 16.0 °F 5.3 °F 9.0 °F 74% 30.43 in 10.0 mi WNW 8.1 mph - N/A   Clear
2:53 AM 16.0 °F 5.3 °F 9.0 °F 74% 30.43 in 10.0 mi WNW 8.1 mph - N/A   Clear
3:53 AM 16.0 °F 3.6 °F 8.1 °F 71% 30.43 in 10.0 mi NW 10.4 mph - N/A   Clear
4:53 AM 16.0 °F 3.6 °F 8.1 °F 71% 30.43 in 10.0 mi NNW 10.4 mph - N/A   Clear
5:53 AM 14.0 °F 3.9 °F 8.1 °F 77% 30.44 in 10.0 mi NW 6.9 mph - N/A   Clear
6:53 AM 12.9 °F 3.8 °F 8.1 °F 81% 30.46 in 10.0 mi West 5.8 mph - N/A   Clear
7:53 AM 15.1 °F 6.4 °F 9.0 °F 77% 30.48 in 10.0 mi WNW 5.8 mph - N/A   Clear
8:53 AM 19.0 °F 10.0 °F 10.0 °F 68% 30.48 in 10.0 mi NW 6.9 mph - N/A   Clear
9:53 AM 21.9 °F 13.4 °F 10.0 °F 60% 30.47 in 10.0 mi NNW 6.9 mph - N/A   Clear
10:53 AM 24.1 °F 17.0 °F 9.0 °F 53% 30.47 in 10.0 mi NW 5.8 mph - N/A   Clear
11:53 AM 27.0 °F 18.7 °F 8.1 °F 45% 30.42 in 10.0 mi NNW 8.1 mph - N/A   Clear
12:53 PM 28.9 °F - 9.0 °F 43% 30.39 in 10.0 mi Calm Calm - N/A   Clear
1:53 PM 30.9 °F 23.5 °F 8.1 °F 38% 30.35 in 9.0 mi SW 8.1 mph - 0.00 in Snow Light Snow
2:53 PM 33.1 °F 25.5 °F 9.0 °F 37% 30.32 in 10.0 mi SSW 9.2 mph - 0.00 in   Clear
3:53 PM 32.0 °F 23.6 °F 8.1 °F 37% 30.31 in 4.0 mi SSW 10.4 mph - N/A   Haze
4:53 PM 28.0 °F 20.0 °F 9.0 °F 45% 30.29 in 7.0 mi South 8.1 mph - N/A   Clear
5:53 PM 24.1 °F 17.0 °F 10.0 °F 55% 30.30 in 8.0 mi South 5.8 mph - N/A   Clear
6:53 PM 23.0 °F 14.7 °F 10.9 °F 60% 30.27 in 9.0 mi South 6.9 mph - N/A   Clear
7:53 PM 28.0 °F 17.0 °F 12.0 °F 51% 30.23 in 5.0 mi South 13.8 mph - N/A   Haze
8:53 PM 28.0 °F 17.5 °F 12.0 °F 51% 30.23 in 5.0 mi South 12.7 mph - N/A   Haze
9:53 PM 28.0 °F 18.1 °F 12.9 °F 53% 30.22 in 5.0 mi South 11.5 mph - N/A   Haze
10:53 PM 27.0 °F 14.7 °F 12.9 °F 56% 30.21 in 4.0 mi South 16.1 mph - N/A   Haze
11:53 PM 27.0 °F 15.6 °F 12.9 °F 56% 30.20 in 4.0 mi South 13.8 mph - N/A   Haze